Tracking 22779 objects as of 14-Apr-2021
HD Live streaming from Space Station
objects crossing your sky now

RADCAL

Track RADCAL now!
10-day predictions
RADCAL is classified as:


NORAD ID: 22698
Int'l Code: 1993-041A
Perigee: 758.3 km
Apogee: 883.4 km
Inclination: 89.6 °
Period: 101.2 minutes
Semi major axis: 7191 km
RCS: 0.589 m2 (medium)
Launch date: June 25, 1993
Source: United States (US)
Launch site: AIR FORCE WESTERN TEST RANGE (AFWTR)

This spacecraft was used to help calibrate radar target cross section data.
aabbcc
Your satellite tracking list
Your tracking list is empty




NASA's NSSDC Master Catalog

Two Line Element Set (TLE):
1 22698U 93041A   21104.16506638  .00000051  00000-0  16508-4 0  9997
2 22698  89.5629 164.2317 0086958 246.2080 112.9977 14.23441586443533
Source of the keplerian elements: AFSPC